Regional Weather Roundup
Issued by NWS Kansas City/Pleasant Hill, MO

Home | Current Version | Previous Version | Text Only | Print | Product List | Glossary On
Versions: 1 2 3 4 5 6 7 8 9 10 11 12 13 14 15 16 17 18 19 20 21 22 23 24 25 26 27
000
ASUS43 KEAX 190310
RWREAX

WEATHER ROUNDUP FOR EASTERN KANSAS AND NORTHWEST MISSOURI
NATIONAL WEATHER SERVICE KANSAS CITY/PLEASANT HILL MO
1000 PM CDT MON SEP 18 2017

KSZ040-057-103>105-MOZ028-029-037-043-190400-
...KANSAS CITY METROPOLITAN AREA...

CITY           SKY/WX    TMP DP  RH WIND       PRES   REMARKS
K.C. INTL      PTCLDY    67  66  97 SE7       29.93S
K.C. DOWNTOWN  PTCLDY    71  68  90 E3        29.92S
LEES SUMMIT    CLEAR     67  67 100 E8        29.94S
OLATHE - IXD   CLEAR     68  67  96 SE6       29.94S
OLATHE - OJC   CLEAR     67  67 100 S7        29.93F
LAWRENCE       CLOUDY    67  67 100 E6        29.91F

$$

MOZ001>008-011>017-020>025-030>033-038>040-044>046-053-054-190400-
...NORTHERN AND CENTRAL MISSOURI...

CITY           SKY/WX    TMP DP  RH WIND       PRES   REMARKS
ST. JOSEPH     CLEAR     68  68 100 SE8       29.92S
WARRENSBURG    CLEAR     64  64 100 NE3       29.95S FOG
WHITEMAN AFB   PTCLDY    67  67 100 E3        29.94S
CLINTON        FOG       66  66 100 CALM      29.95F VSB<1/4
SEDALIA        CLEAR     68  68 100 E3        29.97S
WARSAW         NOT AVBL
CHILLICOTHE      N/A     68  68 100 S3        29.96S
KIRKSVILLE     FOG       67  66  97 SW3       29.97R VSB 1/4

$$

MOZ041-047>049-056>058-063>065-088>090-097-190400-
...EASTERN AND SOUTHERN MISSOURI...

CITY           SKY/WX    TMP DP  RH WIND       PRES   REMARKS
ST. LOUIS INTL LGT RAIN  72  71  97 VRB3      29.96F
SPIRIT OF STL  LGT RAIN  69  68  96 CALM      29.94F
COLUMBIA       MOCLDY    67  67 100 S7        29.96S FOG
JEFFERSON CITY CLOUDY    69  66  90 CALM      29.96S
ROLLA          PTCLDY    68  66  93 SE9       29.99R
OSAGE BEACH    CLEAR     67  67 100 SE3       29.97F
SPRINGFIELD    CLEAR     68  66  93 SE3       29.98R
BRANSON        CLEAR     68  66  94 SE5       30.01R
JOPLIN         CLEAR     67  67 100 SE5       29.96S
WEST PLAINS    MOCLDY    72  69  90 CALM      30.01S

$$

IAZ060-094-KSZ022-034>040-054-083-096-NEZ052-066-093-190400-
...KANSAS...SOUTHEAST NEBRASKA AND IOWA...

CITY           SKY/WX    TMP DP  RH WIND       PRES   REMARKS
TOPEKA         PTCLDY    70  69  97 E5        29.90F
MANHATTAN      CLEAR     74  67  78 S7        29.87S
EMPORIA        CLOUDY    71  66  84 SE10      29.90F
CHANUTE        CLEAR     71  66  84 SE7       29.93S
WICHITA        MOCLDY    77  65  66 SE15      29.90S
OMAHA          MOCLDY    70  65  84 SE8       29.90S
LINCOLN        CLEAR     68  64  87 SE3       29.90R
FALLS CITY     CLEAR     67  65  93 SE5       29.89S
LAMONI         CLEAR     66  65  96 SE5       29.95S
DES MOINES     PTCLDY    67  65  93 E5        29.94F

$$





USA.gov is the U.S. government's official web portal to all federal, state and local government web resources and services.